Weather History for PAFS - April, 2014

Change the Weather History Date:

Tuesday, April 22, 2014

  Actual Average (PAMC) Record (PAMC)
Temperature  
Mean Temperature 43 °F 35 °F  
Max Temperature 54 °F 45 °F 60 °F (2007)
Min Temperature 32 °F 24 °F -6 °F (1972)
Degree Days  
Heating Degree Days 22 31  
Month to date heating degree days 839  
Since 1 July heating degree days 12733  
Cooling Degree Days 0    
Month to date cooling degree days  
Year to date cooling degree days  
Moisture  
Dew Point 27 °F    
Average Humidity 52    
Maximum Humidity 76    
Minimum Humidity 33    
Precipitation  
Precipitation 0.00 in 0.03 in 1.03 in (1960)
Month to date precipitation 0.53  
Year to date precipitation 3.37  
Snow  
Snow 0.00 in 0.10 in 8.50 in (1960)
Month to date snowfall 4.2  
Since 1 July snowfall 95.5  
Snow Depth -    
Sea Level Pressure  
Sea Level Pressure 29.84 in    
Wind  
Wind Speed 5 mph (NE)    
Max Wind Speed 14 mph    
Max Gust Speed 18 mph    
Visibility 10 miles    
Events      
T = Trace of Precipitation, MM = Missing Value Source: NWS Daily Summary

Daily Weather History Graph

Daily Weather History Graph

Search for Another Location

Airport or City:

Trip Planner

Search our weather history database for the weather conditions in past years. The results will help you decide how hot, cold, wet, or windy it might be!

Date:

Astronomy

Apr. 22, 2014 Rise Set
Actual Time 6:26 AM AKDT 10:07 PM AKDT
Civil Twilight 5:29 AM AKDT 11:04 PM AKDT
Nautical Twilight 4:01 AM AKDT 12:36 AM AKDT
Astronomical Twilight Sun does not set Sun does not set
Moon 4:36 AM AKDT (4/22) 1:11 PM AKDT (4/22)
Length of Visible Light 17h 35m
Length of Day
15h 41m
Last Quarter, 44% of the Moon is Illuminated
Apr 22
Last Quarter
Apr 28
New
May 6
First Quarter
May 14
Full
May 21
Last Quarter

Hourly Weather History & Observations

Time (AKDT) Temp. Windchill Dew Point Humidity Pressure Visibility Wind Dir Wind Speed Gust Speed Precip Events Conditions
12:56 AM 39.9 °F 36.7 °F 24.1 °F 53% 29.89 in 10.0 mi ENE 4.6 mph - N/A   Clear
1:56 AM 36.9 °F - 25.2 °F 63% 29.89 in 10.0 mi Calm Calm - N/A   Clear
2:56 AM 36.0 °F - 25.2 °F 65% 29.91 in 10.0 mi Calm Calm - N/A   Clear
3:56 AM 36.0 °F - 25.2 °F 65% 29.91 in 10.0 mi Calm Calm - N/A   Clear
4:56 AM 32.9 °F - 26.1 °F 76% 29.92 in 10.0 mi Calm Calm - N/A   Clear
5:56 AM 32.9 °F - 26.1 °F 76% 29.92 in 10.0 mi Calm Calm - N/A   Clear
6:56 AM 34.0 °F 28.0 °F 26.1 °F 73% 29.92 in 10.0 mi ENE 6.9 mph - N/A   Clear
7:56 AM 36.9 °F 31.4 °F 26.1 °F 65% 29.92 in 10.0 mi ENE 6.9 mph - N/A   Clear
8:56 AM 38.8 °F 32.6 °F 27.1 °F 63% 29.92 in 10.0 mi NE 9.2 mph - N/A   Clear
9:56 AM 41.9 °F 36.3 °F 27.1 °F 56% 29.91 in 10.0 mi NE 9.2 mph - N/A   Clear
10:56 AM 43.9 °F 38.3 °F 27.1 °F 52% 29.90 in 10.0 mi NE 10.4 mph - N/A   Clear
11:56 AM 46.9 °F - 27.1 °F 46% 29.89 in 10.0 mi NE 8.1 mph - N/A   Clear
12:56 PM 50.0 °F - 28.0 °F 43% 29.87 in 10.0 mi Variable 6.9 mph - N/A   Clear
1:56 PM 52.0 °F - 28.0 °F 40% 29.85 in 10.0 mi NNE 9.2 mph - N/A   Clear
2:56 PM 54.0 °F - 29.1 °F 39% 29.82 in 10.0 mi NNE 10.4 mph - N/A   Clear
3:56 PM 54.9 °F - 28.0 °F 36% 29.80 in 10.0 mi NNE 10.4 mph - N/A   Clear
4:56 PM 54.9 °F - 27.1 °F 34% 29.78 in 10.0 mi NE 11.5 mph - N/A   Clear
5:56 PM 54.9 °F - 26.1 °F 33% 29.77 in 10.0 mi ENE 9.2 mph 18.4 mph N/A   Clear
6:56 PM 54.0 °F - 26.1 °F 34% 29.75 in 10.0 mi ENE 13.8 mph - N/A   Clear
7:56 PM 52.9 °F - 26.1 °F 35% 29.74 in 10.0 mi NE 11.5 mph - N/A   Clear
8:56 PM 50.9 °F - 27.1 °F 40% 29.74 in 10.0 mi NNE 10.4 mph - N/A   Clear
9:56 PM 47.8 °F - 27.1 °F 45% 29.74 in 10.0 mi Calm Calm - N/A   Clear
10:56 PM 45.0 °F - 27.1 °F 50% 29.73 in 10.0 mi Calm Calm - N/A   Clear
11:56 PM 39.9 °F - 27.1 °F 60% 29.73 in 10.0 mi Calm Calm - N/A   Clear